Weather History for KFMH - March, 2013

Change the Weather History Date:

Friday, March 8, 2013

  Actual Average Record
Temperature  
Mean Temperature 36 °F -  
Max Temperature 41 °F 40 °F 64 °F (2009)
Min Temperature 32 °F 23 °F 6 °F (2007)
Degree Days  
Heating Degree Days 28    
Moisture  
Dew Point 32 °F    
Average Humidity 91    
Maximum Humidity 100    
Minimum Humidity 61    
Precipitation  
Precipitation 0.12 in - - ()
Sea Level Pressure  
Sea Level Pressure 29.90 in    
Wind  
Wind Speed 22 mph (NNE)    
Max Wind Speed 33 mph    
Max Gust Speed 47 mph    
Visibility 3 miles    
Events Rain , Snow    
Averages and records for this station are not official NWS values.
T = Trace of Precipitation, MM = Missing Value Source: NWS Daily Summary

Daily Weather History Graph

Daily Weather History Graph

Search for Another Location

Airport or City:

Trip Planner

Search our weather history database for the weather conditions in past years. The results will help you decide how hot, cold, wet, or windy it might be!

Date:

Astronomy

Mar. 08, 2013 Rise Set
Actual Time 6:05 AM EST 5:40 PM EST
Civil Twilight 5:37 AM EST 6:08 PM EST
Nautical Twilight 5:05 AM EST 6:40 PM EST
Astronomical Twilight 4:33 AM EST 7:13 PM EST
Moon 3:49 AM EST (3/8) 2:30 PM EST (3/8)
Length of Visible Light 12h 31m
Length of Day
11h 35m
Waning Crescent, 12% of the Moon is Illuminated
Mar 8
Waning Crescent
Mar 11
New
Mar 19
First Quarter
Mar 27
Full
Apr 3
Last Quarter

Hourly Weather History & Observations

Time (EST) Temp. Windchill Dew Point Humidity Pressure Visibility Wind Dir Wind Speed Gust Speed Precip Events Conditions
12:15 AM 32.0 °F 20.5 °F 32.0 °F 100% 29.84 in 2.0 mi NNE 18.4 mph 32.2 mph 0.04 in Snow Light Snow
12:35 AM 32.0 °F 19.2 °F 32.0 °F 100% 29.84 in 2.0 mi NNE 23.0 mph 35.7 mph 0.12 in Snow Light Snow
12:55 AM 32.0 °F 19.8 °F 32.0 °F 100% 29.83 in 1.8 mi NNE 20.7 mph 34.5 mph 0.21 in Snow Light Snow
1:15 AM 32.0 °F 18.6 °F 32.0 °F 100% 29.84 in 1.5 mi NNE 25.3 mph 41.4 mph 0.11 in Snow Light Snow
1:35 AM 32.0 °F 18.9 °F 32.0 °F 100% 29.84 in 1.2 mi NNE 24.2 mph 39.1 mph 0.32 in Snow Light Snow
1:55 AM 32.0 °F 20.1 °F 32.0 °F 100% 29.84 in 1.0 mi NNE 19.6 mph 31.1 mph 0.56 in Snow Light Snow
2:15 AM 32.0 °F 19.8 °F 32.0 °F 100% 29.84 in 1.0 mi NNE 20.7 mph 31.1 mph 0.16 in Snow Light Snow
2:35 AM 32.0 °F 19.5 °F 32.0 °F 100% 29.83 in 1.2 mi NNE 21.9 mph 33.4 mph 0.26 in Snow Light Snow
2:55 AM 32.0 °F - 32.0 °F 100% 29.83 in 0.8 mi North - - 0.68 in Snow Light Snow
3:15 AM 32.0 °F 19.2 °F 32.0 °F 100% 29.82 in 1.0 mi NNE 23.0 mph 33.4 mph 0.14 in Snow Light Snow
3:35 AM 32.0 °F 21.2 °F 32.0 °F 100% 29.83 in 1.0 mi NNE 16.1 mph 28.8 mph 0.35 in Snow Light Snow
3:55 AM 32.0 °F 20.1 °F 32.0 °F 100% 29.83 in 1.0 mi NNE 19.6 mph 34.5 mph 0.51 in Snow Light Snow
4:15 AM 32.0 °F 19.5 °F 32.0 °F 100% 29.83 in 1.2 mi NNE 21.9 mph 33.4 mph 0.07 in Snow Light Snow
4:35 AM 32.0 °F 21.2 °F 32.0 °F 100% 29.83 in 0.8 mi NNE 16.1 mph 35.7 mph 0.28 in Snow Light Snow
4:55 AM 32.0 °F 21.2 °F 32.0 °F 100% 29.83 in 1.0 mi NNE 16.1 mph 32.2 mph 0.51 in Snow Light Snow
5:15 AM 32.0 °F 20.5 °F 32.0 °F 100% 29.83 in 1.0 mi NNE 18.4 mph 34.5 mph 0.14 in Snow Light Snow
5:35 AM 32.0 °F - 32.0 °F 100% 29.83 in 1.0 mi North - - 0.38 in Snow Light Snow
5:55 AM 32.0 °F - 32.0 °F 100% 29.83 in 1.0 mi North - - 0.62 in Snow Light Snow
6:15 AM 32.0 °F 19.8 °F 32.0 °F 100% 29.82 in 0.8 mi NNE 20.7 mph 35.7 mph 0.10 in Snow Light Snow
6:35 AM 32.0 °F 18.4 °F 32.0 °F 100% 29.82 in 0.8 mi NNE 26.5 mph 41.4 mph 0.27 in Snow Light Snow
6:55 AM 32.0 °F 18.1 °F 32.0 °F 100% 29.83 in 0.8 mi NNE 27.6 mph 38.0 mph 0.42 in Snow Light Snow
7:15 AM 32.0 °F 20.1 °F 32.0 °F 100% 29.83 in 0.5 mi NNE 19.6 mph 41.4 mph 0.11 in Snow Snow
7:35 AM 32.0 °F 17.9 °F 32.0 °F 100% 29.83 in 0.8 mi NNE 28.8 mph 38.0 mph 0.24 in Snow Light Snow
7:55 AM 32.0 °F 19.2 °F 32.0 °F 100% 29.84 in 0.5 mi NNE 23.0 mph 40.3 mph 0.42 in Snow Snow
8:15 AM 32.0 °F 18.6 °F 32.0 °F 100% 29.84 in 0.5 mi NNE 25.3 mph 36.8 mph 0.11 in Snow Snow
8:35 AM 32.0 °F 18.6 °F 32.0 °F 100% 29.85 in 0.8 mi NNE 25.3 mph 39.1 mph 0.25 in Snow Light Snow
8:55 AM 32.0 °F 18.4 °F 32.0 °F 100% 29.85 in 0.5 mi NNE 26.5 mph 34.5 mph 0.46 in Snow Snow
9:15 AM 32.0 °F 19.5 °F 32.0 °F 100% 29.85 in 0.8 mi NNE 21.9 mph 40.3 mph 0.09 in Snow Light Snow
9:35 AM 32.0 °F 18.9 °F 32.0 °F 100% 29.85 in 0.8 mi NNE 24.2 mph 36.8 mph 0.26 in Snow Light Snow
9:55 AM 32.0 °F 19.2 °F 32.0 °F 100% 29.86 in 0.8 mi NNE 23.0 mph 39.1 mph 0.45 in Snow Light Snow
10:15 AM 32.0 °F 19.8 °F 32.0 °F 100% 29.86 in 0.8 mi NNE 20.7 mph 35.7 mph 0.11 in Snow Light Snow
10:35 AM 32.0 °F 18.9 °F 32.0 °F 100% 29.86 in 0.8 mi NNE 24.2 mph 33.4 mph 0.24 in Snow Light Snow
10:55 AM 32.0 °F 19.8 °F 32.0 °F 100% 29.86 in 0.8 mi NNE 20.7 mph 41.4 mph 0.35 in Snow Light Snow
11:15 AM 32.0 °F 20.5 °F 32.0 °F 100% 29.87 in 0.8 mi NNE 18.4 mph 40.3 mph 0.07 in Snow Light Snow
11:35 AM 32.0 °F 19.8 °F 32.0 °F 100% 29.87 in 1.0 mi NNE 20.7 mph 39.1 mph 0.17 in Snow Light Snow
11:55 AM 32.0 °F 20.1 °F 32.0 °F 100% 29.87 in 0.5 mi NNE 19.6 mph 39.1 mph 0.30 in Snow Snow
12:15 PM 32.0 °F 20.5 °F 32.0 °F 100% 29.88 in 0.5 mi NNE 18.4 mph 34.5 mph 0.13 in Snow Snow
12:35 PM 32.0 °F 18.4 °F 32.0 °F 100% 29.87 in 0.8 mi NNE 26.5 mph 44.9 mph 0.28 in Snow Light Snow
12:55 PM 32.0 °F 18.6 °F 32.0 °F 100% 29.87 in 0.8 mi NNE 25.3 mph 36.8 mph 0.38 in Snow Light Snow
1:15 PM 32.0 °F 20.5 °F 32.0 °F 100% 29.88 in 0.8 mi NNE 18.4 mph 31.1 mph 0.08 in Snow Light Snow
1:35 PM 32.0 °F 19.5 °F 32.0 °F 100% 29.88 in 1.0 mi NNE 21.9 mph 40.3 mph 0.22 in Snow Light Snow
1:55 PM 32.0 °F 18.4 °F 32.0 °F 100% 29.89 in 1.0 mi NNE 26.5 mph 41.4 mph 0.33 in Snow Light Snow
2:15 PM 32.0 °F 19.5 °F 32.0 °F 100% 29.90 in 1.5 mi NNE 21.9 mph 40.3 mph 0.05 in Snow Light Snow
2:35 PM 32.0 °F 19.8 °F 32.0 °F 100% 29.91 in 1.2 mi NNE 20.7 mph 39.1 mph 0.18 in Snow Light Snow
2:55 PM 32.0 °F 19.5 °F 32.0 °F 100% 29.91 in 1.0 mi NNE 21.9 mph 36.8 mph 0.27 in Snow Light Snow
3:15 PM 32.0 °F 20.1 °F 32.0 °F 100% 29.91 in 1.2 mi NNE 19.6 mph 35.7 mph 0.06 in Snow Light Snow
3:35 PM 32.0 °F 20.1 °F 32.0 °F 100% 29.92 in 1.5 mi NNE 19.6 mph 33.4 mph 0.11 in Snow Light Snow
3:55 PM 33.8 °F 21.9 °F 32.0 °F 93% 29.92 in 1.5 mi NNE 21.9 mph 35.7 mph 0.14 in   Mostly Cloudy
4:15 PM 33.8 °F 21.9 °F 32.0 °F 93% 29.94 in 2.5 mi NNE 21.9 mph 43.7 mph 0.02 in Snow Light Snow
4:35 PM 33.8 °F 21.9 °F 32.0 °F 93% 29.95 in 1.5 mi NNE 21.9 mph 35.7 mph 0.05 in   Overcast
4:55 PM 33.8 °F 22.2 °F 32.0 °F 93% 29.96 in 2.5 mi NNE 20.7 mph 41.4 mph 0.09 in   Mostly Cloudy
5:15 PM 35.6 °F 23.2 °F 32.0 °F 87% 29.97 in 2.5 mi NNE 26.5 mph 41.4 mph 0.03 in   Mostly Cloudy
5:35 PM 35.6 °F 24.5 °F 32.0 °F 87% 29.98 in 3.0 mi NNE 20.7 mph 31.1 mph 0.06 in Rain Light Rain
5:55 PM 35.6 °F 24.0 °F 32.0 °F 87% 29.99 in 5.0 mi NE 23.0 mph 38.0 mph 0.07 in Rain Light Rain
6:15 PM 35.6 °F 24.5 °F 32.0 °F 87% 30.00 in 8.0 mi NE 20.7 mph 47.2 mph N/A   Overcast
6:35 PM 35.6 °F 24.8 °F 32.0 °F 87% 29.99 in 10.0 mi NNE 19.6 mph 32.2 mph N/A   Overcast
6:55 PM 37.4 °F 28.5 °F 32.0 °F 81% 30.00 in 10.0 mi NNE 15.0 mph 27.6 mph N/A   Unknown
7:15 PM 39.2 °F 29.8 °F 32.0 °F 75% 30.00 in 10.0 mi NNE 18.4 mph 33.4 mph N/A   Overcast
7:35 PM 39.2 °F 30.2 °F 32.0 °F 75% 30.01 in 10.0 mi NNE 17.3 mph 26.5 mph N/A   Overcast
7:55 PM 39.2 °F 30.5 °F 32.0 °F 75% 30.01 in 10.0 mi NNE 16.1 mph 29.9 mph N/A   Overcast
8:15 PM 39.2 °F 31.2 °F 30.2 °F 70% 30.02 in 10.0 mi NNE 13.8 mph 26.5 mph N/A   Overcast
8:35 PM 39.2 °F 29.6 °F 30.2 °F 70% 30.02 in 10.0 mi NNE 19.6 mph 32.2 mph N/A   Overcast
8:55 PM 39.2 °F 29.3 °F 30.2 °F 70% 30.02 in 10.0 mi NNE 20.7 mph 27.6 mph N/A   Overcast
9:15 PM 39.2 °F 29.6 °F 28.4 °F 65% 30.03 in 10.0 mi NNE 19.6 mph 32.2 mph N/A   Overcast
9:35 PM 39.2 °F 29.0 °F 28.4 °F 65% 30.03 in 10.0 mi NNE 21.9 mph 33.4 mph N/A   Mostly Cloudy
9:55 PM 39.2 °F 29.8 °F 28.4 °F 65% 30.03 in 10.0 mi NNE 18.4 mph 32.2 mph N/A   Overcast
10:15 PM 39.2 °F 29.6 °F 28.4 °F 65% 30.04 in 10.0 mi NNE 19.6 mph 33.4 mph N/A   Overcast
10:35 PM 39.2 °F 29.0 °F 28.4 °F 65% 30.04 in 10.0 mi NNE 21.9 mph 29.9 mph N/A   Overcast
10:55 PM 39.2 °F 28.7 °F 30.2 °F 70% 30.04 in 10.0 mi NNE 23.0 mph 33.4 mph N/A   Overcast
11:15 PM 39.2 °F 28.7 °F 26.6 °F 61% 30.04 in 10.0 mi NNE 23.0 mph 35.7 mph N/A   Overcast
11:35 PM 39.2 °F 29.3 °F 28.4 °F 65% 30.05 in 10.0 mi NNE 20.7 mph 29.9 mph N/A   Overcast
11:55 PM 37.4 °F 27.8 °F 28.4 °F 70% 30.05 in 10.0 mi NNE 17.3 mph 36.8 mph N/A   Overcast